Regional Weather Roundup
Issued by NWS Goodland, KS

Home | Current Version | Previous Version | Graphics & Text | Print | Product List | Glossary On
Versions: 1 2 3 4 5 6 7 8 9 10 11 12 13 14 15 16 17 18 19 20 21 22 23 24 25 26 27 28 29 30 31 32 33 34 35 36 37 38 39 40 41 42 43 44 45 46 47 48 49 50
000
ASUS43 KGLD 180708
RWRGLD

GOODLAND FORECAST AREA HOURLY WEATHER ROUNDUP
NATIONAL WEATHER SERVICE GOODLAND KS
100 AM MDT FRI AUG 18 2017

...OFFICIAL OBSERVATIONS...

CITY           SKY/WX    TMP DP  RH WIND       PRES   REMARKS
GOODLAND KS    CLEAR     64  60  87 S16       30.06F
HILL CITY KS   MOCLDY    67  58  72 SW9       29.98S
IMPERIAL NEB   CLOUDY    64  57  78 SW7       30.02R
MCCOOK NEB     CLOUDY    67  57  70 SW9       29.96F
AKRON CO       CLEAR     62  47  57 W5        30.10R
BURLINGTON CO  CLOUDY    62  58  86 S10       30.09S
LIMON CO       CLEAR     50  49  96 N5        30.16F
$$

...UNOFFICIAL OBSERVATIONS...

CITY           SKY/WX    TMP DP  RH WIND       PRES   REMARKS
LENORA KS        N/A     64  32  30 CALM        N/A
NORTON KS      CLEAR     63  52  67 SW10      29.95
SHARON SPRINGS   N/A     60  57  89 SE13        N/A
TRENTON NEB      N/A     68  32  26 W6          N/A
KIT CARSON CO    N/A     59  52  77 CALM        N/A
YUMA CO        FAIR      63  48  59 NW9       30.06S
$$



USA.gov is the U.S. government's official web portal to all federal, state and local government web resources and services.